STARLINK-5155 (54170 NORAD) Tracking and Keplerian Element Data

This shows tracking and keplerian element data for the satellite.

Feedback or suggestion? Click here.




ElementValue
Catalog54170
NameSTARLINK-5155
Epoch Orbit383
Epoch Day325.25001157
Epoch Year2022
RAAN24.1186
Inclination53.219
Eccentricity0.0003176
Argument of Perigee14.1349
Mean Anonmoly5.5507
Mean Motion15.73149004
Decay Rate0.00031591
L11 54170U 22141P 22325.25001157 .00031591 00000+0 22912-3 0 9999
L22 54170 53.2190 24.1186 0003176 14.1349 5.5507 15.73149004 3830



Live tracking and technical data element details for STARLINK-5155 (NORAD 54170). STARLINK-5155 can be tracked NOW for your location showing map with azimuth and elevation plus other details from your city location.







IsCatalogInMostPopularTable: catalog: 54170, numindb: 6
Update: records affected: 1



GetName: 54170 STARLINK-5155

Hit Count: updated at: Sun, 04 Dec 2022 21:39:35 GMT